Lexington Weather

Lexington, Massachusetts, USA

29°F
4/1/2020 4:22am 
  • Lexington Conditions: Clear
  • Temperature: 29.1°F / -1.6°CColder 0.4°F than last hour.
  • Dew Point: 27.3°FDecreased 0.2°Fsince last hour.
  • Relative Humidity: 93%Increased 1.0% since last hour.
  • Wind: Wind from NW NW 1 mph, 10-min avg: Calm, gust: 1 mph
  • Barometer: 29.88 in Steady
  • Visibility: 10 miles
  • Snow Today: 0.0 in
  •   

Regional Weather Roundup
for Boston / Norton, MA

        
000
ASUS41 KBOX 291404
RWRBOX

REGIONAL WEATHER ROUNDUP
NATIONAL WEATHER SERVICE BOSTON/NORTON MA
1000 AM EDT SUN MAR 29 2020

NOTE:  "FAIR" INDICATES FEW OR NO CLOUDS BELOW 12,000 FEET WITH NO 
SIGNIFICANT WEATHER AND/OR OBSTRUCTIONS TO VISIBILITY.

MAZALL-291500-
EASTERN MASSACHUSETTS
  
CITY           SKY/WX    TMP DP  RH WIND       PRES   REMARKS
BOSTON         LGT RAIN  43  41  93 E14       30.18S FOG              
BEVERLY        CLOUDY    44  41  89 E9        30.18S                  
LAWRENCE       LGT RAIN  44  41  89 E3        30.21R FOG              
BEDFORD        LGT RAIN  45  42  89 E12       30.16S FOG              
BLUE HILL        N/A     42  42 100 SE14G32   30.14R                  
NORWOOD        CLOUDY    47  43  86 SE6       30.17R FOG              
MARSHFIELD     CLOUDY    45  45 100 SE9G16    30.17S FOG              
PLYMOUTH       CLOUDY    44  42  93 E15G22    30.17R FOG              
TAUNTON        LGT RAIN  45  43  93 SE10      30.15R FOG              
NEW BEDFORD    CLOUDY    44  44 100 SE15G25   30.14R FOG              
$$

MAZALL-291500-
CAPE COD AND THE ISLANDS
  
CITY           SKY/WX    TMP DP  RH WIND       PRES   REMARKS
FALMOUTH       CLOUDY    43  43 100 SE21G31   30.16R FOG              
HYANNIS        CLOUDY    44  40  85 SE12G21   30.15R                  
CHATHAM        CLOUDY    44  37  76 SE13G22   30.17R                  
PROVINCETOWN   CLOUDY    45  35  68 E13       30.18R                  
NANTUCKET      CLOUDY    45  41  86 E22G30    30.14S                  
MARTHAS VNYRD  CLOUDY    46  42  86 E15G28    30.12S                  
$$
 
MAZALL-291500-
CENTRAL AND WESTERN MASSACHUSETTS
  
CITY           SKY/WX    TMP DP  RH WIND       PRES   REMARKS
WORCESTER      LGT RAIN  42  41  96 E9        30.11S VSB 1/4          
FITCHBURG      LGT RAIN  44  42  93 E6        30.17R FOG              
ORANGE         LGT RAIN  45  43  93 E6        30.13S FOG              
SPRINGFIELD    DRIZZLE   45  45  99 NE3       30.10F FOG              
WESTFIELD      CLOUDY    45  43  93 N5        30.12S FOG              
NORTH ADAMS    LGT RAIN  44  40  85 E16G28    30.06F                  
PITTSFIELD     LGT RAIN  43  40  89 E6        30.05F                  
$$
 
RIZALL-291500-
RHODE ISLAND
  
CITY           SKY/WX    TMP DP  RH WIND       PRES   REMARKS
PROVIDENCE     LGT RAIN  46  44  93 E12       30.15S FOG              
NEWPORT        CLOUDY    46  42  86 E17G29    30.11F FOG              
BLOCK ISLAND   CLOUDY    44  42  93 E18G24    30.09F                  
SMITHFIELD     LGT RAIN  44  44 100 SE13G18   30.13F                  
WESTERLY       CLOUDY    48  42  80 E16G29    30.10F HAZE             
$$
 
CTZALL-291500-
CONNECTICUT
  
CITY           SKY/WX    TMP DP  RH WIND       PRES   REMARKS
BRADLEY INTL   DRIZZLE   46  44  93 N6        30.11S FOG              
HARTFORD       CLOUDY    48  45  89 VRB3      30.10S FOG              
BRIDGEPORT     FOG       46  44  93 NE20      30.07S VSB 1            
DANBURY        CLOUDY    47  44  90 E10G20    30.06S FOG              
GROTON         LGT RAIN  45  45 100 E22G30    30.08F FOG              
NEW HAVEN      CLOUDY    48  45  89 E20G33    30.06S FOG              
CHESTER        MIX PCPN  46  45  93 E10G25    30.07S VSB 3/4          
MERIDEN        LGT RAIN  47  45  93 SE8       30.08R FOG              
WILLIMANTIC    CLOUDY    47  44  90 E9        30.11F FOG              
OXFORD         LGT RAIN  46  45  93 SE14G20   30.08R VSB 1            
$$

MEZ002-015-021-024-NHZ003-005-008-011-012-014-VTZ005-008-291500-
NORTHERN NEW ENGLAND
  
CITY           SKY/WX    TMP DP  RH WIND       PRES   REMARKS
PORTLAND ME    CLOUDY    46  39  76 E8        30.23F                  
BANGOR ME      CLOUDY    47  27  45 SE5       30.26F                  
CONCORD NH     LGT RAIN  42  39  89 E6        30.19R                  
MANCHESTER NH  LGT RAIN  44  41  89 E8        30.17R FOG              
NASHUA NH      LGT RAIN  44  44 100 SE15      30.19R FOG              
PORTSMOUTH NH  CLOUDY    44  38  81 E8        30.19                   
JAFFREY NH     LGT RAIN  43  41  93 CALM      30.14R FOG              
KEENE NH       LGT RAIN  43  42  97 CALM      30.15R FOG              
BURLINGTON VT  LGT RAIN  46  41  82 S9        30.04F                  
MT. WASHINGTON SNOW      23  23 100 SE14        N/A  VSB 1/16WCI  11  
$$

NYZ052-076-291500-
EASTERN NEW YORK
  
CITY           SKY/WX    TMP DP  RH WIND       PRES   REMARKS
ALBANY         LGT RAIN  45  42  89 S6        30.04F FOG              
NEW YORK CITY  DRIZZLE   46  44  93 NE21      30.01F FOG              
$$
 
ANZALL-291500-
MARINE OBSERVATIONS
  
STATION/POSITION TIME  TEMP    WIND        PRES    VSBY  WAVE
                       AIR SEA DIR/SP/G                  HT/PER
                 (UTC) (F)     (DEG/KT/KT) (MB)    (MI)  (FT/S)
BOSTON BUOY      1350   44 43   90/ 10/ 12 1021.6R         3/ 4
BUZZARDS BAY     1300          100/ 27/ 30 1020.5S
NANTUCKET SOUND  1340                        N/A           4/ 5
MASS BAY-STELLWA 1304   43 42  110/  8/ 10 1020.7R  1 7/8  2/ 4
ISLE OF SHOALS   1300   42      70/ 11/ 12 1022.6S
S OF BLOCK IS    1330      44                N/A           9/ 8
$$

......................KEY.........................
  SKY/WX - SKY CONDITION/PRESENT WEATHER
  TMP    - TEMPERATURE IN FAHRENHEIT
  DWPT   - DEWPOINT IN FAHRENHEIT
  RH     - RELATIVE HUMIDITY IN PERCENT
  WIND   - DIRECTION AND SPEED IN MPH
  PRES   - MEAN SEA LEVEL PRESSURE IN INCHES OF HG
  WCI    - WIND CHILL INDEX
  VSB    - VISIBILITY IN MILES
  HX     - HEAT INDEX
  TC     - TEMPERATURE IN CELSIUS
  VRB    - VARIABLE WIND DIRECTION
  N/A    - NOT AVAILABLE
  
      

Other recent Regional Weather Roundups

Wed Apr 1, 4:05am

Wed Apr 1, 3:04am

Wed Apr 1, 2:04am

Wed Apr 1, 1:04am

Wed Apr 1, 12:04am

Tue Mar 31, 11:04pm

Tue Mar 31, 10:04pm

Tue Mar 31, 9:04pm

Tue Mar 31, 8:04pm

Tue Mar 31, 7:04pm

Tue Mar 31, 6:04pm

Tue Mar 31, 4:04pm

Tue Mar 31, 3:04pm

Tue Mar 31, 2:04pm

Tue Mar 31, 1:04pm

Tue Mar 31, 12:05pm

Tue Mar 31, 11:04am

Tue Mar 31, 10:05am

Tue Mar 31, 9:04am

Tue Mar 31, 8:04am

Tue Mar 31, 7:05am

Tue Mar 31, 6:04am

Tue Mar 31, 5:04am

Tue Mar 31, 4:04am

Tue Mar 31, 3:04am

Tue Mar 31, 2:04am

Tue Mar 31, 1:04am

Tue Mar 31, 12:04am

Mon Mar 30, 11:04pm

Mon Mar 30, 10:04pm

Mon Mar 30, 9:05pm

Mon Mar 30, 8:04pm

Mon Mar 30, 7:04pm

Mon Mar 30, 6:04pm

Mon Mar 30, 5:05pm

Mon Mar 30, 4:04pm

Mon Mar 30, 3:04pm

Mon Mar 30, 2:04pm

Mon Mar 30, 1:04pm

Mon Mar 30, 12:04pm

Mon Mar 30, 11:04am

Mon Mar 30, 10:04am

Mon Mar 30, 9:04am

Mon Mar 30, 8:04am

Mon Mar 30, 7:04am

Mon Mar 30, 6:04am

Mon Mar 30, 5:04am

Mon Mar 30, 4:04am

Mon Mar 30, 3:05am

Mon Mar 30, 2:04am

Mon Mar 30, 1:04am

Mon Mar 30, 12:04am

Sun Mar 29, 11:04pm

Sun Mar 29, 10:05pm

Sun Mar 29, 9:04pm

Sun Mar 29, 8:04pm

Sun Mar 29, 7:04pm

Sun Mar 29, 6:04pm

Sun Mar 29, 5:05pm

Sun Mar 29, 4:04pm

Sun Mar 29, 3:04pm

Sun Mar 29, 2:04pm

Sun Mar 29, 1:05pm

Sun Mar 29, 12:04pm

Sun Mar 29, 11:04am

Sun Mar 29, 9:04am

Sun Mar 29, 8:04am

Sun Mar 29, 7:04am

Sun Mar 29, 6:04am

Sun Mar 29, 5:04am

Meta data:

ID: 399dff35-a331-4657-b147-1a9aaeaae740
Link: https://api.weather.gov/products/399dff35-a331-4657-b147-1a9aaeaae740